{"data":{"norad_id":66707,"epoch":"2026-05-24T22:04:43.222944Z","epoch_age_seconds":79148,"freshness":"FRESH","line1":"1 66707U 25276AT  26144.91994471  .00005216  00000+0  24952-3 0  9997","line2":"2 66707  97.4228 218.8507 0006308  88.5537 271.6421 15.19397757 26885","mean_motion":15.19397757,"eccentricity":0.0006308,"inclination_deg":97.4228,"raan_deg":218.8507,"arg_perigee_deg":88.5537,"mean_anomaly_deg":271.6421,"bstar":0.00024952,"rev_number":2688,"period_min":94.774392904412,"perigee_km":503.31599917985,"apogee_km":512.0031201195,"semimajor_km":6885.7965596497,"source":"CELESTRAK","updated_at":"2026-05-25T13:38:13.345928Z"}}